| time (UTC) | temp F | wind direction | speed knots | gust knots | rain 1hr in | rain 24hr in | rain mn in | humidity % | barometer mb |
| 20260906123121 | 72 | 214 | 0.0 | 0.9 | 0.00 | 0.00 | 0.00 | 99 | 1036.8 |
| 20260906122620 | 72 | 166 | 0.0 | 0.0 | 0.00 | 0.00 | 0.00 | 99 | 1036.8 |
| 20260906122116 | 71 | 181 | 0.0 | 0.0 | 0.00 | 0.00 | 0.00 | 99 | 1036.8 |
| 20260906121612 | 71 | 176 | 0.0 | 0.0 | 0.00 | 0.00 | 0.00 | 99 | 1036.8 |
| 20260906121108 | 70 | 182 | 0.0 | 0.0 | 0.00 | 0.00 | 0.00 | 99 | 1036.5 |
| 20260906120603 | 70 | 178 | 0.0 | 0.0 | 0.00 | 0.00 | 0.00 | 99 | 1036.8 |
| 20260906120101 | 70 | 177 | 0.0 | 0.0 | 0.00 | 0.00 | 0.00 | 99 | 1036.6 |
| 20260906115600 | 70 | 182 | 0.0 | 0.0 | 0.00 | 0.00 | 0.00 | 99 | 1036.6 |
| 20260906115055 | 70 | 185 | 0.0 | 0.0 | 0.00 | 0.00 | 0.00 | 99 | 1036.4 |
| 20260906114549 | 70 | 182 | 0.0 | 0.0 | 0.00 | 0.00 | 0.00 | 99 | 1036.3 |
| 20260906114039 | 70 | 183 | 0.0 | 0.0 | 0.00 | 0.00 | 0.00 | 99 | 1036.4 |
| 20260906113538 | 69 | 184 | 0.0 | 0.0 | 0.00 | 0.00 | 0.00 | 99 | 1036.1 |
| 20260906113034 | 70 | 177 | 0.0 | 0.0 | 0.00 | 0.00 | 0.00 | 99 | 1035.8 |
| 20260906112528 | 70 | 180 | 0.0 | 0.0 | 0.00 | 0.00 | 0.00 | 99 | 1036.0 |
| 20260906112025 | 70 | 188 | 0.0 | 0.0 | 0.00 | 0.00 | 0.00 | 99 | 1035.9 |
| 20260906111518 | 70 | 187 | 0.0 | 0.0 | 0.00 | 0.00 | 0.00 | 99 | 1036.1 |
| 20260906111014 | 70 | 187 | 0.0 | 0.0 | 0.00 | 0.00 | 0.00 | 99 | 1036.0 |
| 20260906110509 | 70 | 181 | 0.0 | 0.0 | 0.00 | 0.00 | 0.00 | 99 | 1035.8 |
| 20260906110008 | 70 | 181 | 0.0 | 0.0 | 0.00 | 0.00 | 0.00 | 99 | 1035.8 |
| 20260906105503 | 70 | 181 | 0.0 | 0.0 | 0.00 | 0.00 | 0.00 | 99 | 1035.6 |
| 20260906104959 | 70 | 185 | 0.0 | 0.0 | 0.00 | 0.00 | 0.00 | 99 | 1035.9 |
| 20260906104458 | 70 | 185 | 0.0 | 0.0 | 0.00 | 0.00 | 0.00 | 99 | 1035.9 |
| 20260906103957 | 70 | 185 | 0.0 | 0.0 | 0.00 | 0.00 | 0.00 | 99 | 1035.9 |
| 20260906103455 | 70 | 182 | 0.0 | 0.0 | 0.00 | 0.00 | 0.00 | 99 | 1035.9 |
| 20260906102951 | 70 | 186 | 0.0 | 0.0 | 0.00 | 0.00 | 0.00 | 99 | 1035.9 |
| 20260906102450 | 70 | 184 | 0.0 | 0.0 | 0.00 | 0.00 | 0.00 | 99 | 1035.6 |
| 20260906101945 | 70 | 186 | 0.0 | 0.0 | 0.00 | 0.00 | 0.00 | 98 | 1035.6 |
| 20260906101440 | 70 | 183 | 0.0 | 0.0 | 0.00 | 0.00 | 0.00 | 98 | 1035.6 |
| 20260906100935 | 70 | 182 | 0.0 | 0.0 | 0.00 | 0.00 | 0.00 | 98 | 1035.4 |
| 20260906100436 | 70 | 184 | 0.0 | 0.0 | 0.00 | 0.00 | 0.00 | 98 | 1035.7 |
| 20260906095930 | 70 | 184 | 0.0 | 0.0 | 0.00 | 0.00 | 0.00 | 98 | 1035.9 |
| 20260906095426 | 70 | 184 | 0.0 | 0.0 | 0.00 | 0.00 | 0.00 | 98 | 1035.9 |
| 20260906094926 | 71 | 186 | 0.0 | 0.0 | 0.00 | 0.00 | 0.00 | 98 | 1035.6 |
| 20260906094415 | 71 | 183 | 0.0 | 0.0 | 0.00 | 0.00 | 0.00 | 97 | 1035.6 |
| 20260906093911 | 71 | 174 | 0.0 | 0.0 | 0.00 | 0.00 | 0.00 | 97 | 1035.7 |
| 20260906093407 | 71 | 186 | 0.0 | 0.0 | 0.00 | 0.00 | 0.00 | 97 | 1035.6 |
| 20260906092907 | 71 | 186 | 0.0 | 0.0 | 0.00 | 0.00 | 0.00 | 97 | 1035.6 |
| 20260906092407 | 71 | 186 | 0.0 | 0.0 | 0.00 | 0.00 | 0.00 | 97 | 1035.7 |
| 20260906091902 | 71 | 171 | 0.0 | 0.0 | 0.00 | 0.00 | 0.00 | 96 | 1035.7 |
| 20260906091357 | 71 | 185 | 0.0 | 0.0 | 0.00 | 0.00 | 0.00 | 96 | 1035.6 |
| 20260906090854 | 72 | 179 | 0.0 | 0.0 | 0.00 | 0.00 | 0.00 | 96 | 1035.6 |
| 20260906090354 | 71 | 185 | 0.0 | 0.0 | 0.00 | 0.00 | 0.00 | 96 | 1035.7 |
| 20260906085848 | 72 | 183 | 0.0 | 0.0 | 0.00 | 0.00 | 0.00 | 96 | 1035.8 |
| 20260906085348 | 72 | 186 | 0.0 | 0.0 | 0.00 | 0.00 | 0.00 | 95 | 1035.8 |
| 20260906084842 | 72 | 186 | 0.0 | 0.0 | 0.00 | 0.00 | 0.00 | 95 | 1035.5 |
| 20260906084342 | 72 | 186 | 0.0 | 0.0 | 0.00 | 0.00 | 0.00 | 95 | 1035.4 |
| 20260906083836 | 72 | 186 | 0.0 | 0.0 | 0.00 | 0.00 | 0.00 | 95 | 1035.7 |
| 20260906083333 | 72 | 186 | 0.0 | 0.0 | 0.00 | 0.00 | 0.00 | 95 | 1035.4 |
| 20260906082832 | 72 | 187 | 0.0 | 0.0 | 0.00 | 0.00 | 0.00 | 95 | 1035.5 |
| 20260906082327 | 72 | 178 | 0.0 | 0.0 | 0.00 | 0.00 | 0.00 | 94 | 1035.6 |
| 20260906081823 | 73 | 186 | 0.0 | 0.0 | 0.00 | 0.00 | 0.00 | 94 | 1035.2 |
| 20260906081319 | 73 | 186 | 0.0 | 0.0 | 0.00 | 0.00 | 0.00 | 93 | 1035.3 |
| 20260906080815 | 73 | 180 | 0.0 | 0.0 | 0.00 | 0.00 | 0.00 | 93 | 1035.4 |
| 20260906080311 | 73 | 182 | 0.0 | 0.0 | 0.00 | 0.00 | 0.00 | 93 | 1035.4 |
| 20260906075810 | 73 | 190 | 0.0 | 0.0 | 0.00 | 0.00 | 0.00 | 93 | 1035.4 |
| 20260906075310 | 73 | 190 | 0.0 | 0.0 | 0.00 | 0.00 | 0.00 | 92 | 1035.2 |
| 20260906074805 | 73 | 192 | 0.0 | 0.0 | 0.00 | 0.00 | 0.00 | 92 | 1035.4 |
| 20260906074304 | 73 | 187 | 0.0 | 0.0 | 0.00 | 0.00 | 0.00 | 92 | 1035.4 |
| 20260906073758 | 73 | 190 | 0.0 | 0.9 | 0.00 | 0.00 | 0.00 | 92 | 1035.4 |
| 20260906073253 | 73 | 189 | 0.0 | 0.0 | 0.00 | 0.00 | 0.00 | 93 | 1035.2 |
| 20260906072749 | 73 | 188 | 0.0 | 0.0 | 0.00 | 0.00 | 0.00 | 94 | 1035.4 |
| 20260906072245 | 73 | 186 | 0.0 | 0.0 | 0.00 | 0.00 | 0.00 | 95 | 1035.6 |
| 20260906071741 | 73 | 194 | 0.0 | 0.0 | 0.00 | 0.00 | 0.00 | 96 | 1035.5 |
| 20260906071241 | 73 | 191 | 0.0 | 0.0 | 0.00 | 0.00 | 0.00 | 96 | 1035.6 |
| 20260906070737 | 73 | 189 | 0.0 | 0.0 | 0.00 | 0.00 | 0.00 | 96 | 1035.6 |
| 20260906070233 | 73 | 185 | 0.0 | 0.0 | 0.00 | 0.00 | 0.00 | 96 | 1035.5 |
| 20260906065732 | 73 | 186 | 0.0 | 0.0 | 0.00 | 0.00 | 0.00 | 96 | 1035.7 |
| 20260906065227 | 74 | 191 | 0.0 | 0.0 | 0.00 | 0.00 | 0.00 | 96 | 1035.5 |
| 20260906064723 | 74 | 187 | 0.0 | 0.0 | 0.00 | 0.00 | 0.00 | 96 | 1035.5 |
| 20260906064219 | 74 | 186 | 0.0 | 0.0 | 0.00 | 0.00 | 0.00 | 96 | 1035.4 |
| 20260906063714 | 74 | 185 | 0.0 | 0.0 | 0.00 | 0.00 | 0.00 | 96 | 1035.5 |
| 20260906063209 | 74 | 186 | 0.0 | 0.0 | 0.00 | 0.00 | 0.00 | 96 | 1035.5 |
| 20260906062705 | 75 | 190 | 0.0 | 0.0 | 0.00 | 0.00 | 0.00 | 96 | 1035.3 |
| 20260906062203 | 75 | 189 | 0.0 | 0.0 | 0.00 | 0.00 | 0.00 | 96 | 1035.4 |
| 20260906061659 | 75 | 185 | 0.0 | 0.0 | 0.00 | 0.00 | 0.00 | 96 | 1035.8 |
| 20260906061155 | 75 | 189 | 0.0 | 0.0 | 0.00 | 0.00 | 0.00 | 96 | 1035.7 |
| 20260906060651 | 75 | 195 | 0.9 | 1.7 | 0.00 | 0.00 | 0.00 | 96 | 1036.0 |
| 20260906060148 | 75 | 182 | 0.9 | 1.7 | 0.00 | 0.00 | 0.00 | 97 | 1036.0 |
| 20260906055643 | 75 | 201 | 0.9 | 1.7 | 0.00 | 0.00 | 0.00 | 97 | 1036.1 |
| 20260906055138 | 74 | 179 | 0.0 | 0.9 | 0.00 | 0.00 | 0.00 | 97 | 1036.3 |
| 20260906054633 | 74 | 189 | 0.0 | 0.9 | 0.00 | 0.00 | 0.00 | 96 | 1035.9 |
| 20260906054128 | 74 | 184 | 0.0 | 0.0 | 0.00 | 0.00 | 0.00 | 96 | 1036.4 |
| 20260906053625 | 74 | 186 | 0.0 | 0.0 | 0.00 | 0.00 | 0.00 | 96 | 1036.3 |
| 20260906053120 | 74 | 202 | 0.0 | 0.9 | 0.00 | 0.00 | 0.00 | 96 | 1036.5 |
| 20260906052616 | 74 | 187 | 0.0 | 0.9 | 0.00 | 0.00 | 0.00 | 96 | 1036.3 |
| 20260906052112 | 74 | 185 | 0.0 | 0.0 | 0.00 | 0.00 | 0.00 | 96 | 1036.2 |
| 20260906051608 | 74 | 189 | 0.0 | 0.0 | 0.00 | 0.00 | 0.00 | 95 | 1036.1 |
| 20260906051103 | 74 | 179 | 0.0 | 0.0 | 0.00 | 0.00 | 0.00 | 96 | 1036.3 |
| 20260906050558 | 74 | 187 | 0.0 | 0.0 | 0.00 | 0.00 | 0.00 | 95 | 1036.1 |
| 20260906050054 | 74 | 187 | 0.0 | 0.0 | 0.00 | 0.26 | 0.26 | 95 | 1036.1 |
| 20260906045551 | 74 | 180 | 0.0 | 0.0 | 0.00 | 0.26 | 0.26 | 95 | 1036.2 |
| 20260906045047 | 74 | 187 | 0.0 | 0.0 | 0.00 | 0.26 | 0.26 | 95 | 1036.3 |
| 20260906044542 | 74 | 184 | 0.0 | 0.9 | 0.00 | 0.26 | 0.26 | 95 | 1036.2 |
| 20260906044038 | 74 | 173 | 0.9 | 1.7 | 0.00 | 0.26 | 0.26 | 95 | 1036.4 |
| 20260906043533 | 74 | 164 | 2.6 | 2.6 | 0.00 | 0.26 | 0.26 | 95 | 1036.4 |
| 20260906043030 | 74 | 163 | 0.9 | 0.9 | 0.00 | 0.26 | 0.26 | 94 | 1036.8 |
| 20260906042528 | 74 | 174 | 0.0 | 1.7 | 0.00 | 0.26 | 0.26 | 94 | 1036.6 |
| 20260906042023 | 74 | 32 | 2.6 | 5.2 | 0.00 | 0.26 | 0.26 | 93 | 1037.1 |
| 20260906041519 | 73 | 168 | 0.0 | 13.0 | 0.00 | 0.26 | 0.26 | 92 | 1036.8 |
| 20260906041013 | 73 | 225 | 1.7 | 2.6 | 0.00 | 0.26 | 0.26 | 91 | 1036.4 |
| 20260906040509 | 73 | 176 | 0.0 | 2.6 | 0.00 | 0.26 | 0.26 | 92 | 1036.0 |
| 20260906040004 | 74 | 29 | 4.3 | 6.1 | 0.00 | 0.26 | 0.26 | 92 | 1036.2 |
| 20260906035459 | 75 | 192 | 0.0 | 0.0 | 0.00 | 0.26 | 0.26 | 90 | 1035.3 |
| 20260906034955 | 74 | 194 | 0.0 | 0.9 | 0.00 | 0.26 | 0.26 | 88 | 1035.7 |
| 20260906034454 | 74 | 187 | 1.7 | 4.3 | 0.05 | 0.26 | 0.26 | 88 | 1035.6 |
| 20260906033950 | 74 | 183 | 0.0 | 0.0 | 0.05 | 0.26 | 0.26 | 89 | 1035.8 |
| 20260906033449 | 74 | 192 | 0.9 | 2.6 | 0.12 | 0.25 | 0.25 | 89 | 1036.3 |
| 20260906032946 | 75 | 57 | 0.9 | 5.2 | 0.12 | 0.25 | 0.25 | 92 | 1036.5 |
| 20260906032442 | 76 | 283 | 2.6 | 7.8 | 0.07 | 0.23 | 0.23 | 95 | 1036.3 |
| 20260906031936 | 76 | 130 | 3.5 | 7.8 | 0.00 | 0.22 | 0.22 | 97 | 1036.4 |
| 20260906031431 | 75 | 57 | 1.7 | 7.0 | 0.00 | 0.22 | 0.22 | 99 | 1036.5 |
| 20260906030921 | 74 | 85 | 0.0 | 4.3 | 0.00 | 0.22 | 0.22 | 99 | 1036.5 |
| 20260906030416 | 74 | 193 | 0.9 | 5.2 | 0.00 | 0.22 | 0.22 | 99 | 1036.6 |
| 20260906025910 | 75 | 202 | 1.7 | 7.0 | 0.00 | 0.22 | 0.22 | 99 | 1036.1 |
| 20260906025405 | 75 | 329 | 7.0 | 8.7 | 0.00 | 0.22 | 0.22 | 99 | 1036.1 |
| 20260906024904 | 75 | 188 | 0.0 | 0.9 | 0.00 | 0.22 | 0.22 | 99 | 1035.4 |
| 20260906024403 | 75 | 175 | 0.0 | 0.0 | 0.00 | 0.22 | 0.22 | 99 | 1035.3 |
| 20260906023858 | 75 | 169 | 0.0 | 0.9 | 0.00 | 0.22 | 0.22 | 99 | 1035.5 |
| 20260906023354 | 75 | 137 | 0.9 | 1.7 | 0.00 | 0.22 | 0.22 | 99 | 1035.1 |
| 20260906022849 | 75 | 184 | 0.0 | 0.0 | 0.00 | 0.22 | 0.22 | 99 | 1034.8 |
| 20260906022343 | 75 | 182 | 0.0 | 0.9 | 0.00 | 0.22 | 0.22 | 99 | 1034.8 |
| 20260906021840 | 75 | 180 | 0.0 | 1.7 | 0.00 | 0.22 | 0.22 | 99 | 1034.9 |
| 20260906021339 | 75 | 181 | 0.0 | 0.0 | 0.00 | 0.22 | 0.22 | 99 | 1034.8 |
| 20260906020834 | 75 | 176 | 1.7 | 1.7 | 0.00 | 0.22 | 0.22 | 99 | 1034.8 |
| 20260906020333 | 75 | 187 | 0.0 | 0.0 | 0.00 | 0.22 | 0.22 | 99 | 1034.7 |
| 20260906015828 | 75 | 188 | 1.7 | 2.6 | 0.00 | 0.22 | 0.22 | 99 | 1035.1 |
| 20260906015327 | 75 | 231 | 0.0 | 0.9 | 0.00 | 0.22 | 0.22 | 99 | 1034.8 |
| 20260906014826 | 75 | 185 | 0.0 | 0.0 | 0.00 | 0.22 | 0.22 | 99 | 1034.5 |
| 20260906014322 | 75 | 175 | 0.9 | 1.7 | 0.00 | 0.22 | 0.22 | 99 | 1034.6 |
| 20260906013818 | 75 | 188 | 0.0 | 1.7 | 0.00 | 0.22 | 0.22 | 99 | 1034.6 |
| 20260906013313 | 75 | 190 | 0.0 | 0.0 | 0.00 | 0.22 | 0.22 | 99 | 1034.7 |
| 20260906012808 | 75 | 193 | 0.0 | 0.0 | 0.00 | 0.22 | 0.22 | 99 | 1034.3 |
| 20260906012306 | 75 | 194 | 0.0 | 0.9 | 0.00 | 0.22 | 0.22 | 99 | 1034.7 |
| 20260906011758 | 75 | 196 | 0.0 | 0.0 | 0.00 | 0.22 | 0.22 | 99 | 1034.1 |
| 20260906011258 | 75 | 189 | 0.0 | 0.0 | 0.00 | 0.22 | 0.22 | 98 | 1034.3 |
| 20260906010754 | 75 | 184 | 0.0 | 0.0 | 0.00 | 0.22 | 0.22 | 98 | 1034.3 |
| 20260906010250 | 75 | 198 | 0.0 | 0.0 | 0.00 | 0.22 | 0.22 | 98 | 1034.3 |
| 20260906005744 | 75 | 187 | 0.0 | 0.9 | 0.00 | 0.22 | 0.22 | 97 | 1034.3 |
| 20260906005244 | 75 | 169 | 0.0 | 0.9 | 0.00 | 0.22 | 0.22 | 97 | 1034.3 |
| 20260906004737 | 75 | 177 | 0.0 | 1.7 | 0.00 | 0.22 | 0.22 | 97 | 1034.3 |
| 20260906004232 | 76 | 174 | 0.0 | 0.9 | 0.00 | 0.22 | 0.22 | 96 | 1034.2 |
| 20260906003727 | 75 | 193 | 0.0 | 0.0 | 0.00 | 0.22 | 0.22 | 96 | 1034.6 |
| 20260906003217 | 76 | 170 | 0.0 | 0.9 | 0.05 | 0.22 | 0.22 | 95 | 1034.5 |
| 20260906002711 | 76 | 180 | 0.0 | 0.0 | 0.05 | 0.22 | 0.22 | 94 | 1034.7 |
| 20260906002206 | 76 | 176 | 0.9 | 1.7 | 0.07 | 0.21 | 0.21 | 93 | 1034.8 |
| 20260906001702 | 76 | 188 | 0.9 | 2.6 | 0.12 | 0.21 | 0.21 | 94 | 1034.9 |
| 20260906001201 | 76 | 201 | 0.9 | 4.3 | 0.12 | 0.20 | 0.20 | 93 | 1035.2 |
| 20260906000657 | 77 | 185 | 0.0 | 5.2 | 0.07 | 0.19 | 0.19 | 94 | 1035.2 |
| 20260906000152 | 77 | 161 | 0.9 | 1.7 | 0.00 | 0.18 | 0.18 | 93 | 1035.4 |
| 20260905235651 | 77 | 174 | 0.9 | 1.7 | 0.00 | 0.18 | 0.18 | 92 | 1035.1 |
| 20260905235146 | 78 | 162 | 3.5 | 5.2 | 0.00 | 0.18 | 0.18 | 93 | 1035.3 |
| 20260905234641 | 77 | 199 | 0.9 | 2.6 | 0.00 | 0.18 | 0.18 | 92 | 1035.2 |
| 20260905234137 | 78 | 187 | 0.0 | 1.7 | 0.00 | 0.18 | 0.18 | 90 | 1034.5 |
| 20260905233632 | 80 | 125 | 1.7 | 2.6 | 0.78 | 0.18 | 0.18 | 86 | 1034.5 |
| 20260905233126 | 79 | 123 | 4.3 | 7.0 | 1.09 | 0.18 | 0.18 | 88 | 1034.1 |
| 20260905232621 | 81 | 98 | 2.6 | 13.9 | 0.31 | 0.05 | 0.05 | 84 | 1034.8 |
| 20260905232117 | 87 | 268 | 4.3 | 12.2 | 0.00 | 0.00 | 0.00 | 73 | 1034.6 |
| 20260905231617 | 91 | 98 | 1.7 | 2.6 | 0.00 | 0.00 | 0.00 | 69 | 1034.3 |
| 20260905231113 | 92 | 182 | 0.9 | 4.3 | 0.00 | 0.00 | 0.00 | 66 | 1034.2 |
| 20260905230609 | 92 | 73 | 2.6 | 4.3 | 0.00 | 0.00 | 0.00 | 65 | 1034.3 |
| 20260905230106 | 92 | 138 | 0.9 | 5.2 | 0.00 | 0.00 | 0.00 | 64 | 1034.0 |
| 20260905225600 | 93 | 157 | 0.9 | 2.6 | 0.00 | 0.00 | 0.00 | 65 | 1033.8 |
| 20260905225055 | 93 | 186 | 2.6 | 7.0 | 0.00 | 0.00 | 0.00 | 63 | 1033.9 |
| 20260905224550 | 93 | 183 | 0.0 | 1.7 | 0.00 | 0.00 | 0.00 | 64 | 1034.0 |
| 20260905224049 | 94 | 179 | 2.6 | 2.6 | 0.00 | 0.00 | 0.00 | 63 | 1034.0 |
| 20260905223547 | 93 | 171 | 0.0 | 2.6 | 0.00 | 0.00 | 0.00 | 64 | 1034.1 |
| 20260905223042 | 93 | 119 | 0.9 | 2.6 | 0.00 | 0.00 | 0.00 | 63 | 1034.0 |
| 20260905222537 | 93 | 171 | 0.9 | 0.9 | 0.00 | 0.00 | 0.00 | 63 | 1033.9 |
| 20260905222032 | 93 | 166 | 0.9 | 2.6 | 0.00 | 0.00 | 0.00 | 63 | 1033.9 |
| 20260905221529 | 93 | 154 | 1.7 | 4.3 | 0.00 | 0.00 | 0.00 | 63 | 1034.0 |
| 20260905221024 | 95 | 71 | 2.6 | 4.3 | 0.00 | 0.00 | 0.00 | 60 | 1033.9 |
| 20260905220520 | 96 | 179 | 0.9 | 2.6 | 0.00 | 0.00 | 0.00 | 56 | 1033.9 |
| 20260905220016 | 96 | 179 | 0.9 | 1.7 | 0.00 | 0.00 | 0.00 | 57 | 1034.0 |
| 20260905215510 | 95 | 182 | 0.9 | 2.6 | 0.00 | 0.00 | 0.00 | 57 | 1034.0 |
| 20260905215006 | 95 | 146 | 1.7 | 1.7 | 0.00 | 0.00 | 0.00 | 58 | 1034.1 |
| 20260905214501 | 95 | 197 | 0.9 | 1.7 | 0.00 | 0.00 | 0.00 | 57 | 1033.9 |
| 20260905214002 | 94 | 116 | 1.7 | 4.3 | 0.00 | 0.00 | 0.00 | 58 | 1033.8 |
| 20260905213458 | 95 | 161 | 0.9 | 1.7 | 0.00 | 0.00 | 0.00 | 56 | 1033.9 |
| 20260905212953 | 94 | 64 | 2.6 | 4.3 | 0.00 | 0.00 | 0.00 | 58 | 1034.0 |
| 20260905212447 | 93 | 115 | 0.9 | 2.6 | 0.00 | 0.00 | 0.00 | 59 | 1034.1 |
| 20260905211946 | 95 | 137 | 0.9 | 2.6 | 0.00 | 0.00 | 0.00 | 58 | 1034.1 |
| 20260905211442 | 93 | 180 | 0.0 | 1.7 | 0.00 | 0.00 | 0.00 | 60 | 1034.4 |
| 20260905210932 | 94 | 169 | 1.7 | 5.2 | 0.00 | 0.00 | 0.00 | 60 | 1034.2 |
| 20260905210432 | 96 | 119 | 0.9 | 5.2 | 0.00 | 0.00 | 0.00 | 58 | 1034.5 |
| 20260905205932 | 95 | 150 | 0.9 | 2.6 | 0.00 | 0.00 | 0.00 | 57 | 1034.6 |
| 20260905205427 | 94 | 192 | 0.0 | 1.7 | 0.00 | 0.00 | 0.00 | 58 | 1034.4 |
| 20260905204926 | 94 | 178 | 0.0 | 5.2 | 0.00 | 0.00 | 0.00 | 59 | 1034.7 |
| 20260905204422 | 97 | 195 | 4.3 | 7.0 | 0.00 | 0.00 | 0.00 | 57 | 1034.8 |
| 20260905203921 | 97 | 175 | 0.9 | 0.9 | 0.00 | 0.00 | 0.00 | 54 | 1034.7 |
| 20260905203417 | 95 | 191 | 0.0 | 2.6 | 0.00 | 0.00 | 0.00 | 55 | 1034.7 |
| 20260905202912 | 96 | 183 | 0.9 | 1.7 | 0.00 | 0.00 | 0.00 | 55 | 1034.8 |
| 20260905202407 | 96 | 193 | 0.0 | 1.7 | 0.00 | 0.00 | 0.00 | 52 | 1034.5 |
| 20260905201903 | 97 | 211 | 0.9 | 1.7 | 0.00 | 0.00 | 0.00 | 53 | 1034.9 |
| 20260905201358 | 97 | 227 | 1.7 | 2.6 | 0.00 | 0.00 | 0.00 | 52 | 1035.0 |
| 20260905200857 | 99 | 271 | 3.5 | 4.3 | 0.00 | 0.00 | 0.00 | 51 | 1034.6 |
| 20260905200354 | 98 | 329 | 1.7 | 2.6 | 0.00 | 0.00 | 0.00 | 50 | 1034.9 |
| 20260905195852 | 98 | 194 | 0.9 | 5.2 | 0.00 | 0.00 | 0.00 | 53 | 1034.9 |
| 20260905195347 | 100 | 177 | 2.6 | 4.3 | 0.00 | 0.00 | 0.00 | 50 | 1034.9 |
| 20260905194842 | 100 | 195 | 2.6 | 2.6 | 0.00 | 0.00 | 0.00 | 49 | 1035.2 |
| 20260905194336 | 100 | 300 | 2.6 | 4.3 | 0.00 | 0.00 | 0.00 | 49 | 1035.0 |
| 20260905193836 | 101 | 208 | 1.7 | 5.2 | 0.00 | 0.00 | 0.00 | 48 | 1035.2 |
| 20260905193331 | 100 | 190 | 1.7 | 2.6 | 0.00 | 0.00 | 0.00 | 49 | 1035.4 |
| 20260905192827 | 100 | 218 | 2.6 | 5.2 | 0.00 | 0.00 | 0.00 | 49 | 1035.2 |
| 20260905192322 | 99 | 193 | 0.0 | 4.3 | 0.00 | 0.00 | 0.00 | 50 | 1035.2 |
| 20260905191821 | 99 | 198 | 0.0 | 6.1 | 0.00 | 0.00 | 0.00 | 51 | 1035.2 |
| 20260905191320 | 100 | 251 | 2.6 | 5.2 | 0.00 | 0.00 | 0.00 | 51 | 1035.6 |
| 20260905190818 | 99 | 192 | 0.9 | 2.6 | 0.00 | 0.00 | 0.00 | 52 | 1035.5 |
| 20260905190313 | 99 | 191 | 0.0 | 6.1 | 0.00 | 0.00 | 0.00 | 52 | 1035.6 |
| 20260905185812 | 98 | 228 | 2.6 | 5.2 | 0.00 | 0.00 | 0.00 | 54 | 1035.5 |
| 20260905185307 | 98 | 210 | 0.0 | 4.3 | 0.00 | 0.00 | 0.00 | 52 | 1035.8 |
| 20260905184806 | 99 | 34 | 2.6 | 5.2 | 0.00 | 0.00 | 0.00 | 51 | 1035.8 |
| 20260905184300 | 100 | 192 | 0.0 | 1.7 | 0.00 | 0.00 | 0.00 | 49 | 1035.5 |
| 20260905183759 | 99 | 223 | 1.7 | 6.1 | 0.00 | 0.00 | 0.00 | 54 | 1035.7 |
| 20260905183254 | 99 | 252 | 2.6 | 5.2 | 0.00 | 0.00 | 0.00 | 51 | 1035.9 |
| 20260905182754 | 99 | 195 | 2.6 | 2.6 | 0.00 | 0.00 | 0.00 | 50 | 1036.0 |
| 20260905182254 | 99 | 218 | 0.9 | 2.6 | 0.00 | 0.00 | 0.00 | 53 | 1036.1 |
| 20260905181749 | 100 | 193 | 0.0 | 5.2 | 0.00 | 0.00 | 0.00 | 54 | 1036.1 |
| 20260905181248 | 99 | 203 | 0.9 | 2.6 | 0.00 | 0.00 | 0.00 | 55 | 1036.0 |
| 20260905180743 | 97 | 227 | 0.0 | 1.7 | 0.00 | 0.00 | 0.00 | 58 | 1036.2 |
| 20260905180238 | 95 | 134 | 0.0 | 1.7 | 0.00 | 0.00 | 0.00 | 61 | 1036.5 |
| 20260905175733 | 95 | 123 | 2.6 | 4.3 | 0.00 | 0.00 | 0.00 | 62 | 1036.6 |
| 20260905175227 | 96 | 184 | 0.9 | 4.3 | 0.00 | 0.00 | 0.00 | 64 | 1036.6 |
| 20260905174722 | 98 | 57 | 0.9 | 7.8 | 0.00 | 0.00 | 0.00 | 61 | 1036.5 |
| 20260905174218 | 98 | 190 | 0.0 | 2.6 | 0.00 | 0.00 | 0.00 | 60 | 1036.5 |
| 20260905173714 | 98 | 188 | 0.0 | 1.7 | 0.00 | 0.00 | 0.00 | 61 | 1036.7 |
| 20260905173210 | 99 | 188 | 0.0 | 2.6 | 0.00 | 0.00 | 0.00 | 59 | 1036.5 |
| 20260905172709 | 97 | 190 | 0.0 | 5.2 | 0.00 | 0.00 | 0.00 | 60 | 1036.6 |
| 20260905172203 | 97 | 168 | 3.5 | 7.0 | 0.00 | 0.00 | 0.00 | 58 | 1036.7 |
| 20260905171659 | 96 | 183 | 0.0 | 2.6 | 0.00 | 0.00 | 0.00 | 62 | 1036.8 |
| 20260905171155 | 96 | 195 | 0.0 | 2.6 | 0.00 | 0.00 | 0.00 | 61 | 1037.3 |
| 20260905170652 | 96 | 197 | 1.7 | 2.6 | 0.00 | 0.00 | 0.00 | 61 | 1037.1 |
| 20260905170152 | 96 | 100 | 0.9 | 1.7 | 0.00 | 0.00 | 0.00 | 62 | 1037.1 |
| 20260905165652 | 96 | 193 | 0.0 | 2.6 | 0.00 | 0.00 | 0.00 | 63 | 1037.1 |
| 20260905165147 | 95 | 177 | 2.6 | 5.2 | 0.00 | 0.00 | 0.00 | 63 | 1037.2 |
| 20260905164642 | 95 | 166 | 2.6 | 2.6 | 0.00 | 0.00 | 0.00 | 62 | 1037.3 |
| 20260905164141 | 95 | 193 | 0.0 | 0.0 | 0.00 | 0.00 | 0.00 | 63 | 1037.3 |
| 20260905163637 | 94 | 190 | 0.0 | 4.3 | 0.00 | 0.00 | 0.00 | 67 | 1037.4 |
| 20260905163134 | 94 | 155 | 0.0 | 4.3 | 0.00 | 0.00 | 0.00 | 65 | 1037.5 |
| 20260905162630 | 94 | 182 | 0.9 | 1.7 | 0.00 | 0.00 | 0.00 | 65 | 1037.5 |
| 20260905162129 | 93 | 209 | 1.7 | 2.6 | 0.00 | 0.00 | 0.00 | 67 | 1037.6 |
| 20260905161628 | 93 | 188 | 0.0 | 0.9 | 0.00 | 0.00 | 0.00 | 68 | 1037.6 |
| 20260905161126 | 92 | 176 | 0.0 | 0.9 | 0.00 | 0.00 | 0.00 | 67 | 1037.6 |
| 20260905160621 | 92 | 225 | 0.9 | 4.3 | 0.00 | 0.00 | 0.00 | 71 | 1037.5 |
| 20260905160120 | 92 | 178 | 0.0 | 1.7 | 0.00 | 0.00 | 0.00 | 70 | 1037.8 |
| 20260905155615 | 91 | 181 | 0.0 | 1.7 | 0.00 | 0.00 | 0.00 | 71 | 1037.7 |
| 20260905155108 | 90 | 191 | 0.0 | 0.9 | 0.00 | 0.00 | 0.00 | 72 | 1037.9 |
| 20260905154608 | 90 | 175 | 0.0 | 2.6 | 0.00 | 0.00 | 0.00 | 72 | 1038.0 |
| 20260905154104 | 91 | 235 | 1.7 | 1.7 | 0.00 | 0.00 | 0.00 | 72 | 1038.0 |
| 20260905153559 | 90 | 196 | 0.0 | 0.0 | 0.00 | 0.00 | 0.00 | 73 | 1038.1 |
| 20260905153054 | 90 | 187 | 0.0 | 0.0 | 0.00 | 0.00 | 0.00 | 73 | 1038.2 |
| 20260905152549 | 88 | 174 | 0.0 | 0.0 | 0.00 | 0.00 | 0.00 | 76 | 1038.2 |
| 20260905152044 | 88 | 174 | 0.9 | 2.6 | 0.00 | 0.00 | 0.00 | 77 | 1038.0 |
| 20260905151539 | 87 | 205 | 0.9 | 1.7 | 0.00 | 0.00 | 0.00 | 79 | 1038.0 |
| 20260905151034 | 87 | 194 | 0.0 | 0.9 | 0.00 | 0.00 | 0.00 | 79 | 1038.3 |
| 20260905150524 | 85 | 164 | 0.0 | 0.9 | 0.00 | 0.00 | 0.00 | 81 | 1038.3 |
| 20260905150021 | 85 | 168 | 1.7 | 2.6 | 0.00 | 0.00 | 0.00 | 82 | 1038.2 |
| 20260905145515 | 83 | 189 | 0.0 | 2.6 | 0.00 | 0.00 | 0.00 | 86 | 1038.3 |
| 20260905145015 | 83 | 186 | 0.0 | 0.9 | 0.00 | 0.00 | 0.00 | 86 | 1038.2 |
| 20260905144509 | 82 | 188 | 0.0 | 0.9 | 0.00 | 0.00 | 0.00 | 87 | 1038.2 |
| 20260905144008 | 82 | 195 | 0.0 | 0.0 | 0.00 | 0.00 | 0.00 | 88 | 1038.2 |
| 20260905143507 | 81 | 185 | 0.0 | 0.9 | 0.00 | 0.00 | 0.00 | 89 | 1038.4 |
| 20260905143002 | 81 | 185 | 0.0 | 0.9 | 0.00 | 0.00 | 0.00 | 90 | 1038.3 |
| 20260905142501 | 80 | 198 | 0.0 | 0.9 | 0.00 | 0.00 | 0.00 | 90 | 1038.4 |
| 20260905141957 | 80 | 191 | 0.0 | 1.7 | 0.00 | 0.00 | 0.00 | 91 | 1038.6 |
| 20260905141451 | 80 | 188 | 0.0 | 0.0 | 0.00 | 0.00 | 0.00 | 92 | 1038.4 |
| 20260905140948 | 80 | 190 | 0.0 | 0.9 | 0.00 | 0.00 | 0.00 | 92 | 1038.4 |
| 20260905140443 | 79 | 189 | 0.0 | 0.0 | 0.00 | 0.00 | 0.00 | 93 | 1038.5 |
| 20260905135941 | 79 | 196 | 0.0 | 0.9 | 0.00 | 0.00 | 0.00 | 93 | 1038.4 |
| 20260905135437 | 79 | 185 | 0.0 | 0.0 | 0.00 | 0.00 | 0.00 | 94 | 1038.4 |
| 20260905134927 | 78 | 171 | 0.0 | 0.0 | 0.00 | 0.00 | 0.00 | 94 | 1038.4 |
| 20260905134426 | 78 | 201 | 0.0 | 0.0 | 0.00 | 0.00 | 0.00 | 95 | 1038.3 |
| 20260905133920 | 78 | 186 | 0.0 | 0.0 | 0.00 | 0.00 | 0.00 | 96 | 1038.6 |
| 20260905133420 | 78 | 183 | 0.0 | 0.0 | 0.00 | 0.00 | 0.00 | 97 | 1038.1 |
| 20260905132920 | 77 | 184 | 0.0 | 0.0 | 0.00 | 0.00 | 0.00 | 97 | 1038.4 |
| 20260905132415 | 77 | 188 | 0.0 | 0.0 | 0.00 | 0.00 | 0.00 | 98 | 1038.3 |
| 20260905131910 | 77 | 149 | 0.0 | 1.7 | 0.00 | 0.00 | 0.00 | 99 | 1038.4 |
| 20260905131406 | 76 | 147 | 0.9 | 1.7 | 0.00 | 0.00 | 0.00 | 99 | 1038.5 |
| 20260905130906 | 76 | 179 | 0.0 | 0.9 | 0.00 | 0.00 | 0.00 | 99 | 1038.4 |
| 20260905130406 | 76 | 184 | 0.0 | 0.0 | 0.00 | 0.00 | 0.00 | 99 | 1038.6 |
| 20260905125901 | 76 | 173 | 0.0 | 0.0 | 0.00 | 0.00 | 0.00 | 99 | 1038.6 |
| 20260905125355 | 75 | 184 | 0.0 | 0.0 | 0.00 | 0.00 | 0.00 | 99 | 1038.7 |
| 20260905124851 | 75 | 174 | 0.0 | 0.0 | 0.00 | 0.00 | 0.00 | 99 | 1038.6 |
| 20260905124347 | 75 | 180 | 0.0 | 0.0 | 0.00 | 0.00 | 0.00 | 99 | 1038.7 |
| 20260905123842 | 75 | 177 | 0.0 | 0.9 | 0.00 | 0.00 | 0.00 | 99 | 1038.6 |
| 20260905123339 | 76 | 184 | 0.0 | 0.0 | 0.00 | 0.00 | 0.00 | 99 | 1038.5 |